Date String (YYYY-MM-DD hh:mm:ss) UTC,Instrument flags,Ambient pressure (hPa),Sample flow (lpm),Bypass flow (lpm),Sample temperature (°C),Ambient temperature (°C),ASC tube jacket temperature (°C),LED temperature (°C),Box temperature (°C),Sample RH (%),Span deviation,Mass concentration (μg/m³),Mass concentration (μg/m³),Mass concentration (μg/m³)
DateTimeUTC,F1_M11,P_M11,Q1_M11,Q2_M11,T1_M11,T2_M11,T3_M11,T4_M11,T5_M11,U1_M11,ZSPAN_M11,X0_M11,X2_M11,X1_M11
2022-02-19 11:00:00,,0828.6,4.99,0.00,22.6,22.0,00.0,31.4,24.4,09.1,0000.0,0003.64,0001.29,0000.64
2022-02-19 11:01:00,,0828.7,5.01,0.00,22.6,21.9,00.0,31.4,24.3,09.2,0000.0,0004.62,0001.33,0000.64
2022-02-19 11:02:00,,0828.8,4.99,0.00,22.5,21.9,00.0,31.4,24.3,09.2,0000.0,0005.06,0001.36,0000.65
2022-02-19 11:03:00,,0828.8,5.00,0.00,22.5,21.9,00.0,31.4,24.3,09.2,0000.0,0004.82,0001.34,0000.66
2022-02-19 11:04:00,,0828.6,5.01,0.00,22.5,21.9,00.0,31.4,24.3,09.2,0000.0,0004.67,0001.32,0000.66
2022-02-19 11:05:00,,0828.6,4.99,0.00,22.5,21.8,00.0,31.4,24.3,09.2,0000.0,0004.64,0001.30,0000.67
2022-02-19 11:06:00,,0828.6,5.01,0.00,22.5,21.8,00.0,31.4,24.3,09.2,0000.0,0004.53,0001.28,0000.68
2022-02-19 11:07:00,,0828.6,4.99,0.00,22.5,21.8,00.0,31.4,24.3,09.2,0000.0,0004.46,0001.24,0000.69
2022-02-19 11:08:00,,0828.5,5.00,0.00,22.5,21.8,00.0,31.4,24.3,09.2,0000.0,0004.30,0001.19,0000.70
2022-02-19 11:09:00,,0828.6,5.00,0.00,22.5,21.8,00.0,31.4,24.2,09.2,0000.0,0003.76,0001.18,0000.71
2022-02-19 11:10:00,,0828.6,5.00,0.00,22.4,21.8,00.0,31.4,24.2,09.2,0000.0,0003.73,0001.14,0000.71
2022-02-19 11:11:00,,0829.0,5.02,0.00,22.4,21.8,00.0,31.4,24.2,09.2,0000.0,0004.71,0001.15,0000.73
2022-02-19 11:12:00,,0829.1,4.99,0.00,22.4,21.7,00.0,31.4,24.2,09.2,0000.0,0004.08,0001.14,0000.74
2022-02-19 11:13:00,,0828.9,4.99,0.00,22.4,21.7,00.0,31.4,24.2,09.2,0000.0,0003.25,0001.07,0000.74
2022-02-19 11:14:00,,0829.0,5.02,0.00,22.4,21.7,00.0,31.4,24.2,09.2,0000.0,0003.22,0001.05,0000.74
2022-02-19 11:15:00,,0828.9,5.00,0.00,22.4,21.7,00.0,31.4,24.2,09.2,0000.0,0003.23,0001.07,0000.75
2022-02-19 11:16:00,,0828.9,4.98,0.00,22.4,21.7,00.0,31.4,24.2,09.2,0000.0,0003.20,0001.07,0000.75
2022-02-19 11:17:00,,0829.0,5.01,0.00,22.4,21.7,00.0,31.4,24.1,09.2,0000.0,0003.27,0001.10,0000.75
2022-02-19 11:18:00,,0829.0,4.99,0.00,22.4,21.7,00.0,31.4,24.1,09.3,0000.0,0003.39,0001.16,0000.75
2022-02-19 11:19:00,,0829.0,5.00,0.00,22.4,21.6,00.0,31.3,24.1,09.3,0000.0,0003.44,0001.18,0000.74
2022-02-19 11:20:00,,0829.1,5.01,0.00,22.3,21.6,00.0,31.3,24.1,09.3,0000.0,0003.68,0001.15,0000.74
2022-02-19 11:21:00,,0829.1,5.00,0.00,22.3,21.6,00.0,31.3,24.1,09.3,0000.0,0004.71,0001.15,0000.74
2022-02-19 11:22:00,,0829.0,4.99,0.00,22.3,21.6,00.0,31.3,24.1,09.2,0000.0,0003.79,0001.15,0000.74
2022-02-19 11:23:00,,0829.0,4.99,0.00,22.3,21.6,00.0,31.3,24.1,09.2,0000.0,0003.51,0001.11,0000.72
2022-02-19 11:24:00,,0829.1,5.01,0.00,22.3,21.6,00.0,31.3,24.1,09.2,0000.0,0003.41,0001.08,0000.71
2022-02-19 11:25:00,,0829.1,4.98,0.00,22.3,21.8,00.0,31.3,24.1,09.2,0000.0,0003.29,0001.03,0000.70
2022-02-19 11:26:00,,0829.0,5.00,0.00,22.4,22.4,00.0,31.4,24.3,09.2,0000.0,0003.18,0001.00,0000.69
2022-02-19 11:27:00,,0829.0,5.00,0.00,22.6,23.0,00.0,31.4,24.5,09.1,0000.0,0003.14,0000.98,0000.69
2022-02-19 11:28:00,,0829.0,5.01,0.00,22.6,23.0,00.0,31.4,24.6,09.1,0000.0,0003.08,0000.96,0000.69
2022-02-19 11:29:00,,0829.2,5.00,0.00,22.7,22.8,00.0,31.4,24.6,09.1,0000.0,0003.05,0000.89,0000.69
2022-02-19 11:30:00,,0829.0,5.00,0.00,22.7,22.7,00.0,31.5,24.6,09.0,0000.0,0003.52,0000.89,0000.70
2022-02-19 11:31:00,,0828.9,5.00,0.00,22.6,22.5,00.0,31.5,24.5,09.0,0000.0,0003.56,0000.90,0000.70
2022-02-19 11:32:00,,0829.1,4.99,0.00,22.7,22.4,00.0,31.5,24.5,09.0,0000.0,0002.21,0000.87,0000.69
2022-02-19 11:33:00,,0829.0,5.01,0.00,22.6,22.3,00.0,31.5,24.5,09.0,0000.0,0002.09,0000.84,0000.68
2022-02-19 11:34:00,,0829.0,4.99,0.00,22.6,22.2,00.0,31.5,24.5,09.0,0000.0,0002.09,0000.83,0000.67
2022-02-19 11:35:00,,0828.7,4.99,0.00,22.6,22.1,00.0,31.5,24.5,09.0,0000.0,0003.17,0000.85,0000.67
2022-02-19 11:36:00,,0828.5,5.01,0.00,22.6,22.1,00.0,31.5,24.4,09.0,0000.0,0003.55,0000.86,0000.68
2022-02-19 11:37:00,,0828.5,5.00,0.00,22.6,22.0,00.0,31.5,24.4,09.0,0000.0,0003.63,0000.89,0000.67
2022-02-19 11:38:00,,0828.4,4.99,0.00,22.6,22.0,00.0,31.5,24.4,09.0,0000.0,0003.67,0000.90,0000.66
2022-02-19 11:39:00,,0828.5,5.01,0.00,22.6,22.0,00.0,31.5,24.4,09.1,0000.0,0003.89,0000.94,0000.65
2022-02-19 11:40:00,,0828.5,5.00,0.00,22.6,21.9,00.0,31.5,24.3,09.1,0000.0,0003.85,0000.98,0000.67
2022-02-19 11:41:00,,0828.5,4.99,0.00,22.6,21.9,00.0,31.5,24.3,09.1,0000.0,0003.28,0000.95,0000.67
2022-02-19 11:42:00,,0828.5,5.01,0.00,22.5,21.8,00.0,31.5,24.3,09.1,0000.0,0003.14,0000.94,0000.67
2022-02-19 11:43:00,,0828.6,4.99,0.00,22.5,21.8,00.0,31.5,24.3,09.1,0000.0,0003.02,0000.94,0000.67
2022-02-19 11:44:00,,0828.5,4.99,0.00,22.5,21.8,00.0,31.5,24.3,09.1,0000.0,0003.01,0000.96,0000.69
2022-02-19 11:45:00,,0828.4,5.01,0.00,22.5,21.8,00.0,31.5,24.2,09.1,0000.0,0002.95,0000.96,0000.70
2022-02-19 11:46:00,,0828.4,4.99,0.00,22.4,21.7,00.0,31.5,24.2,09.1,0000.0,0002.24,0000.98,0000.71
2022-02-19 11:47:00,,0828.4,5.01,0.00,22.4,21.7,00.0,31.4,24.2,09.2,0000.0,0001.71,0000.99,0000.71
2022-02-19 11:48:00,,0828.4,4.99,0.00,22.4,21.7,00.0,31.4,24.2,09.2,0000.0,0001.77,0001.00,0000.72
2022-02-19 11:49:00,,0828.4,4.99,0.00,22.4,21.7,00.0,31.4,24.2,09.2,0000.0,0001.90,0001.04,0000.73
2022-02-19 11:50:00,,0828.4,5.01,0.00,22.4,21.7,00.0,31.4,24.2,09.2,0000.0,0002.41,0001.01,0000.75
2022-02-19 11:51:00,,0828.4,4.99,0.00,22.4,21.7,00.0,31.4,24.1,09.1,0000.0,0002.53,0000.96,0000.73
2022-02-19 11:52:00,,0828.4,5.00,0.00,22.4,21.6,00.0,31.4,24.2,09.1,0000.0,0002.47,0000.93,0000.71
2022-02-19 11:53:00,,0828.4,5.01,0.00,22.4,21.6,00.0,31.4,24.1,09.1,0000.0,0002.45,0000.91,0000.70
2022-02-19 11:54:00,,0828.4,5.00,0.00,22.4,21.6,00.0,31.4,24.1,09.1,0000.0,0002.46,0000.91,0000.69
2022-02-19 11:55:00,,0828.4,5.00,0.00,22.4,21.6,00.0,31.4,24.1,09.1,0000.0,0002.48,0000.91,0000.69
2022-02-19 11:56:00,,0828.4,4.99,0.00,22.3,21.6,00.0,31.3,24.1,09.1,0000.0,0002.51,0000.91,0000.69
2022-02-19 11:57:00,,0828.4,5.01,0.00,22.3,21.6,00.0,31.3,24.1,09.1,0000.0,0002.65,0000.88,0000.67
2022-02-19 11:58:00,,0828.3,5.00,0.00,22.4,21.8,00.0,31.3,24.1,09.1,0000.0,0003.08,0000.87,0000.67
2022-02-19 11:59:00,,0828.3,4.98,0.00,22.4,22.4,00.0,31.4,24.3,09.1,0000.0,0002.98,0000.84,0000.66
